Location: Chavannes
(47.1090°N, 0.2226°W)
Time: 13:50:39
(UTC+00:00)

Cosmos 1697 Rocket - Pass Details

Date: 16 October 2021
Orbit: 834 x 842 km, 71.0° (Epoch: 02 December)

Event Time Altitude Azimuth Distance (km) Brightness Sun altitude
Rises 19:17:50 0° 236° (SW) 3,389 6.5 -22.2°
Reaches altitude 10° 19:20:31 10° 246° (WSW) 2,458 5.8 -22.7°
Maximum altitude 19:25:33 32° 309° (NW) 1,404 4.3 -23.5°
Drops below altitude 10° 19:30:36 10° 13° (NNE) 2,466 5.1 -24.3°
Sets 19:33:19 0° 23° (NNE) 3,403 5.8 -24.8°
